TimeMST,TemperatureF,Dew PointF,Humidity,Sea Level PressureIn,VisibilityMPH,Wind Direction,Wind SpeedMPH,Gust SpeedMPH,PrecipitationIn,Events,Conditions,WindDirDegrees,DateUTC
12:53 AM,33.1,28.0,82,30.05,10.0,SW,18.4,-,N/A,,Partly Cloudy,230,2012-12-07 07:53:00
1:14 AM,33.8,28.4,81,30.02,10.0,SW,17.3,-,N/A,,Mostly Cloudy,230,2012-12-07 08:14:00
1:53 AM,32.0,28.0,85,30.05,10.0,SW,16.1,-,N/A,,Mostly Cloudy,230,2012-12-07 08:53:00
2:53 AM,32.0,28.0,85,30.08,10.0,SW,13.8,-,N/A,,Overcast,230,2012-12-07 09:53:00
3:53 AM,32.0,27.0,82,30.08,10.0,SW,15.0,-,N/A,,Overcast,230,2012-12-07 10:53:00
4:53 AM,32.0,26.1,79,30.08,10.0,SW,16.1,-,N/A,,Overcast,230,2012-12-07 11:53:00
5:53 AM,32.0,25.0,75,30.09,10.0,SW,15.0,-,N/A,,Overcast,230,2012-12-07 12:53:00
6:53 AM,30.9,24.1,76,30.12,10.0,WSW,15.0,-,N/A,,Overcast,240,2012-12-07 13:53:00
7:53 AM,30.9,24.1,76,30.14,10.0,SW,15.0,-,N/A,,Mostly Cloudy,230,2012-12-07 14:53:00
8:53 AM,30.9,24.1,76,30.14,10.0,WSW,13.8,-,N/A,,Mostly Cloudy,240,2012-12-07 15:53:00
9:53 AM,34.0,24.1,67,30.14,10.0,SW,18.4,25.3,N/A,,Mostly Cloudy,230,2012-12-07 16:53:00
10:53 AM,34.0,24.1,67,30.16,10.0,WSW,18.4,-,N/A,,Mostly Cloudy,240,2012-12-07 17:53:00
11:53 AM,35.1,23.0,61,30.12,10.0,SW,18.4,-,N/A,,Overcast,230,2012-12-07 18:53:00
12:53 PM,36.0,21.9,57,30.09,10.0,SW,20.7,26.5,N/A,,Mostly Cloudy,220,2012-12-07 19:53:00
1:53 PM,37.0,23.0,57,30.06,10.0,SW,19.6,25.3,N/A,,Mostly Cloudy,220,2012-12-07 20:53:00
2:53 PM,37.9,23.0,55,30.05,10.0,SW,21.9,28.8,N/A,,Mostly Cloudy,220,2012-12-07 21:53:00
3:53 PM,37.0,21.9,54,30.03,10.0,SW,13.8,-,N/A,,Mostly Cloudy,230,2012-12-07 22:53:00
4:53 PM,36.0,24.1,62,30.03,10.0,SW,12.7,-,N/A,,Mostly Cloudy,220,2012-12-07 23:53:00
5:53 PM,35.6,23.0,60,29.97,10.0,SW,15.0,-,N/A,,Mostly Cloudy,220,2012-12-08 00:53:00
6:53 PM,36.0,21.9,57,30.01,10.0,SSW,12.7,-,N/A,,Mostly Cloudy,210,2012-12-08 01:53:00
7:53 PM,36.0,24.1,62,29.99,10.0,SW,12.7,-,N/A,,Overcast,220,2012-12-08 02:53:00
8:53 PM,35.1,24.1,64,29.97,10.0,SSW,4.6,-,N/A,,Overcast,200,2012-12-08 03:53:00
9:53 PM,35.1,26.1,70,29.95,10.0,SW,8.1,-,N/A,,Overcast,230,2012-12-08 04:53:00
10:53 PM,34.0,25.0,70,29.94,10.0,WSW,12.7,-,N/A,,Mostly Cloudy,240,2012-12-08 05:53:00
11:53 PM,35.1,24.1,64,29.91,10.0,SW,16.1,-,N/A,,Mostly Cloudy,220,2012-12-08 06:53:00